1536523200.55,34139,18.88,74498.0,-0.13,-23.19,-23.33,0,*66
1536523201.78,34140,18.88,74498.0,-0.15,-23.29,-23.39,0,*67
1536523203.03,34141,18.88,74496.3,-0.13,-23.03,-23.13,0,*60
1536523204.28,34142,18.88,74496.5,-0.13,-23.39,-23.49,0,*65
1536523205.56,34143,18.81,74494.8,-0.13,-23.19,-23.33,0,*6B
1536523206.83,34144,18.81,74494.0,-0.13,-23.29,-23.29,0,*64
1536523208.06,34145,18.88,74498.3,-0.11,-23.13,-23.33,0,*65
1536523209.3,34146,18.88,74496.8,-0.11,-23.33,-23.33,0,*64
1536523210.55,34147,18.88,74498.5,-0.11,-23.49,-23.65,0,*6B
1536523211.79,34148,18.88,74496.3,-0.11,-23.49,-23.65,0,*64
1536523213.01,34149,18.81,74494.0,-0.11,-23.59,-23.65,0,*64
1536523214.24,34150,18.88,74498.0,-0.11,-23.43,-23.65,0,*67
1536523215.47,34151,18.81,74496.5,-0.11,-23.33,-23.43,0,*65
1536523216.71,34152,18.88,74496.5,-0.11,-23.33,-23.49,0,*6C
1536523217.99,34153,18.88,74500.5,-0.13,-23.49,-23.53,0,*69
1536523219.24,34154,18.88,74496.3,-0.13,-23.33,-23.39,0,*6F
1536523220.46,34155,18.88,74498.0,-0.11,-23.33,-23.59,0,*6A
1536523221.71,34156,18.88,74498.8,-0.11,-23.23,-23.33,0,*64
1536523222.93,34157,18.88,74498.5,-0.15,-23.29,-23.39,0,*61
1536523224.17,34158,18.81,74496.5,-0.13,-23.39,-23.53,0,*65
1536523225.45,34159,18.88,74500.5,-0.13,-23.33,-23.33,0,*68
1536523226.67,34160,18.88,74498.3,-0.11,-23.23,-23.13,0,*63
1536523227.92,34161,18.88,74496.8,-0.11,-23.23,-23.33,0,*60
1536523229.19,34162,18.88,74498.0,-0.09,-23.23,-23.33,0,*5A
1536523230.44,34163,18.88,74496.8,-0.11,-23.29,-23.49,0,*65
1536523231.66,34164,18.88,74498.8,-0.11,-23.33,-23.59,0,*68
1536523232.92,34165,18.88,74498.5,-0.09,-23.23,-23.29,0,*56
1536523234.19,34166,18.88,74496.0,-0.09,-23.23,-23.29,0,*55
1536523235.42,34167,18.88,74496.3,-0.11,-23.13,-23.33,0,*65
1536523236.65,34168,18.88,74502.0,-0.11,-23.09,-23.23,0,*60
1536523237.87,34169,18.88,74496.0,-0.09,-23.13,-23.13,0,*50
1536523239.14,34170,18.81,74494.8,-0.09,-23.23,-23.33,0,*59
1536523240.39,34171,18.81,74494.8,-0.09,-23.13,-23.23,0,*5A
1536523241.64,34172,18.88,74496.5,-0.09,-23.13,-23.29,0,*53
1536523242.91,34173,18.88,74496.8,-0.09,-23.23,-23.23,0,*5B
1536523244.17,34174,18.88,74498.8,-0.09,-23.13,-23.23,0,*5F
1536523245.44,34175,18.81,74494.5,-0.09,-23.29,-23.33,0,*56
1536523246.71,34176,18.88,74498.0,-0.09,-23.23,-23.33,0,*5F
1536523247.95,34177,18.81,74496.8,-0.11,-23.33,-23.65,0,*65
1536523249.19,34178,18.88,74496.5,-0.09,-23.33,-23.59,0,*5C
1536523250.44,34179,18.88,74496.3,-0.09,-23.43,-23.65,0,*55
1536523251.69,34180,18.81,74498.3,-0.11,-23.33,-23.49,0,*63
1536523252.94,34181,18.88,74496.5,-0.11,-23.33,-23.49,0,*62
1536523254.19,34182,18.88,74498.5,-0.11,-23.33,-23.49,0,*61
1536523255.44,34183,18.88,74496.5,-0.09,-23.29,-23.43,0,*58
1536523256.71,34184,18.88,74498.3,-0.09,-23.29,-23.49,0,*55
1536523257.95,34185,18.81,74494.8,-0.11,-23.23,-23.33,0,*6A
1536523259.21,34186,18.81,74492.3,-0.09,-23.29,-23.43,0,*5D
1536523260.46,34187,18.81,74496.5,-0.09,-23.33,-23.43,0,*57
1536523261.69,34188,18.88,74498.8,-0.11,-23.13,-23.23,0,*65
1536523262.96,34189,18.88,74498.5,-0.09,-23.23,-23.33,0,*5F
1536523264.23,34190,18.88,74498.3,-0.09,-23.23,-23.33,0,*57
1536523265.48,34191,18.88,74498.8,-0.09,-23.23,-23.43,0,*51
1536523266.73,34192,18.88,74498.8,-0.09,-23.33,-23.43,0,*53
1536523267.98,34193,18.88,74496.8,-0.09,-23.43,-23.65,0,*51
1536523269.23,34194,18.88,74498.8,-0.09,-23.33,-23.43,0,*55
1536523270.5,34195,18.88,74496.0,-0.09,-23.33,-23.49,0,*5E
1536523271.77,34196,18.81,74496.0,-0.09,-23.49,-23.65,0,*5E
1536523273.04,34197,18.81,74496.0,-0.09,-23.65,-23.65,0,*51
1536523274.31,34198,18.81,74496.3,-0.09,-23.49,-23.65,0,*50
1536523275.55,34199,18.88,74496.3,-0.09,-23.59,-23.65,0,*50
1536523276.76,34200,18.88,74496.5,-0.11,-23.59,-23.75,0,*6B
1536523278.0,34201,18.88,74496.5,-0.09,-23.49,-23.59,0,*5C
1536523279.25,34202,18.81,74492.0,-0.09,-23.59,-23.65,0,*51
1536523280.47,34203,18.81,74498.5,-0.11,-23.29,-23.43,0,*6A
1536523281.74,34204,18.88,74496.3,-0.09,-23.49,-23.65,0,*56
1536523282.97,34205,18.81,74494.3,-0.09,-23.43,-23.59,0,*52
1536523284.22,34206,18.88,74498.0,-0.09,-23.43,-23.65,0,*5E
1536523285.44,34207,18.81,74498.5,-0.11,-23.65,-23.75,0,*63
1536523286.71,34208,18.88,74496.8,-0.09,-23.49,-23.65,0,*5A
1536523287.95,34209,18.81,74498.3,-0.09,-23.13,-23.29,0,*5C
1536523289.21,34210,18.88,74496.8,-0.09,-23.13,-23.23,0,*5E
1536523290.45,34211,18.81,74498.3,-0.09,-23.43,-23.65,0,*58
1536523291.72,34212,18.88,74496.8,-0.09,-23.49,-23.65,0,*51
1536523292.99,34213,18.81,74498.3,-0.09,-23.49,-23.65,0,*50
1536523294.26,34214,18.88,74496.5,-0.09,-23.49,-23.65,0,*57
1536523295.46,34215,18.81,74498.3,-0.11,-23.43,-23.59,0,*6A
1536523296.73,34216,18.81,74498.3,-0.09,-23.29,-23.29,0,*5B
1536523297.98,34217,18.88,74498.8,-0.09,-23.29,-23.43,0,*56
1536523299.25,34218,18.81,74496.8,-0.09,-23.49,-23.65,0,*5B
1536523300.47,34219,18.81,74494.8,-0.11,-23.59,-23.65,0,*62
1536523301.7,34220,18.81,74498.5,-0.09,-23.43,-23.59,0,*55
1536523302.94,34221,18.88,74498.8,-0.09,-23.49,-23.59,0,*5E
1536523304.19,34222,18.81,74496.5,-0.11,-23.49,-23.65,0,*6B
1536523305.43,34223,18.88,74496.0,-0.09,-23.59,-23.65,0,*52
1536523306.66,34224,18.81,74494.8,-0.11,-23.29,-23.43,0,*6F
1536523307.86,34225,18.81,74498.0,-0.11,-23.43,-23.59,0,*69
1536523309.13,34226,18.81,74496.8,-0.09,-23.29,-23.33,0,*53
1536523310.35,34227,18.88,74498.3,-0.09,-23.13,-23.13,0,*59
1536523311.6,34228,18.88,74500.0,-0.11,-23.29,-23.49,0,*69
1536523312.83,34229,18.81,74498.8,-0.09,-23.43,-23.59,0,*5C
1536523314.08,34230,18.88,74496.8,-0.09,-23.43,-23.65,0,*5B
1536523315.32,34231,18.88,74496.5,-0.09,-23.43,-23.65,0,*5A
1536523316.54,34232,18.88,74498.0,-0.11,-23.49,-23.59,0,*65
1536523317.77,34233,18.88,74496.5,-0.09,-23.43,-23.59,0,*57
1536523319.02,34234,18.81,74496.8,-0.09,-23.29,-23.43,0,*57
1536523320.24,34235,18.88,74498.5,-0.11,-23.43,-23.65,0,*67
1536523321.51,34236,18.81,74494.0,-0.09,-23.65,-23.65,0,*59
1536523322.74,34237,18.88,74496.8,-0.11,-23.43,-23.65,0,*65
1536523324.01,34238,18.81,74494.3,-0.09,-23.49,-23.65,0,*59
1536523325.23,34239,18.88,74498.8,-0.11,-23.59,-23.65,0,*60
1536523326.5,34240,18.88,74498.0,-0.09,-23.49,-23.65,0,*56
1536523327.72,34241,18.81,74492.8,-0.11,-23.65,-23.59,0,*6F
1536523328.94,34242,18.88,74498.5,-0.11,-23.65,-23.79,0,*6E
1536523330.16,34243,18.81,74498.5,-0.11,-23.65,-23.79,0,*6F
1536523331.36,34244,18.81,74496.5,-0.11,-23.59,-23.75,0,*6B
1536523332.58,34245,18.88,74496.0,-0.11,-23.59,-23.65,0,*6B
1536523333.8,34246,18.88,74498.3,-0.11,-23.49,-23.59,0,*66
1536523335.05,34247,18.88,74496.5,-0.11,-23.33,-23.33,0,*66
1536523336.28,34248,18.88,74498.5,-0.11,-23.29,-23.43,0,*65
1536523337.53,34249,18.81,74494.5,-0.11,-23.29,-23.49,0,*6E
1536523338.75,34250,18.81,74494.0,-0.11,-23.33,-23.43,0,*67
1536523340.0,34251,18.81,74498.0,-0.11,-23.49,-23.65,0,*6F
1536523341.2,34252,18.81,74498.5,-0.11,-23.43,-23.59,0,*69
1536523342.42,34253,18.81,74498.5,-0.11,-23.43,-23.65,0,*67
1536523343.63,34254,18.88,74502.8,-0.11,-23.59,-23.75,0,*6A
1536523344.83,34255,18.81,74494.3,-0.11,-23.75,-23.75,0,*65
1536523346.03,34256,18.88,74496.8,-0.11,-23.75,-23.79,0,*6A
1536523347.28,34257,18.88,74496.8,-0.11,-23.49,-23.49,0,*67
1536523348.56,34258,18.88,74498.8,-0.13,-23.53,-23.69,0,*63
1536523349.79,34259,18.81,74498.8,-0.13,-23.79,-23.79,0,*6B
1536523351.04,34260,18.88,74498.8,-0.13,-23.65,-23.79,0,*6C
1536523352.28,34261,18.88,74502.3,-0.11,-23.65,-23.65,0,*62
1536523353.55,34262,18.81,74498.3,-0.13,-23.33,-23.53,0,*65
1536523354.8,34263,18.81,74494.5,-0.15,-23.53,-23.69,0,*6D
1536523356.08,34264,18.81,74492.3,-0.13,-23.53,-23.65,0,*60
1536523357.33,34265,18.88,74500.5,-0.13,-23.39,-23.53,0,*68
1536523358.6,34266,18.81,74498.0,-0.13,-23.65,-23.69,0,*6B
1536523359.88,34267,18.81,74498.3,-0.13,-23.53,-23.65,0,*63
1536523361.15,34268,18.81,74496.3,-0.13,-23.49,-23.69,0,*6B
1536523362.4,34269,18.81,74494.8,-0.15,-23.33,-23.49,0,*63
1536523363.65,34270,18.81,74498.5,-0.13,-23.39,-23.49,0,*67
1536523364.92,34271,18.81,74496.8,-0.13,-23.53,-23.53,0,*61
1536523366.2,34272,18.81,74494.3,-0.13,-23.65,-23.69,0,*6E
1536523367.48,34273,18.88,74498.5,-0.13,-23.33,-23.49,0,*6E
1536523368.75,34274,18.81,74496.0,-0.13,-23.33,-23.49,0,*69
1536523370.03,34275,18.81,74496.8,-0.13,-23.33,-23.49,0,*68
1536523371.31,34276,18.81,74498.0,-0.13,-23.33,-23.49,0,*6B
1536523372.58,34277,18.81,74492.5,-0.13,-23.49,-23.65,0,*69
1536523373.86,34278,18.81,74494.3,-0.13,-23.49,-23.69,0,*6A
1536523375.14,34279,18.81,74498.3,-0.13,-23.53,-23.69,0,*60
1536523376.38,34280,18.81,74494.3,-0.11,-23.49,-23.65,0,*63
1536523377.62,34281,18.81,74496.5,-0.11,-23.49,-23.65,0,*62
1536523378.87,34282,18.88,74496.8,-0.11,-23.33,-23.49,0,*62
1536523380.1,34283,18.81,74494.8,-0.11,-23.43,-23.49,0,*64
1536523381.38,34284,18.81,74496.5,-0.13,-23.53,-23.69,0,*62
1536523382.65,34285,18.81,74498.3,-0.13,-23.53,-23.69,0,*63
1536523383.93,34286,18.81,74496.3,-0.13,-23.19,-23.33,0,*61
1536523385.18,34287,18.81,74494.3,-0.13,-23.39,-23.49,0,*6F
1536523386.46,34288,18.81,74496.3,-0.13,-23.53,-23.69,0,*6E
1536523387.73,34289,18.81,74496.8,-0.13,-23.53,-23.65,0,*63
1536523389.01,34290,18.81,74494.8,-0.13,-23.53,-23.69,0,*67
1536523390.23,34291,18.81,74496.3,-0.15,-23.49,-23.79,0,*6A
1536523391.48,34292,18.81,74496.3,-0.11,-23.33,-23.49,0,*63
1536523392.73,34293,18.81,74494.3,-0.11,-23.29,-23.33,0,*64
1536523393.98,34294,18.81,74496.3,-0.11,-23.33,-23.49,0,*65
1536523395.22,34295,18.88,74498.0,-0.11,-23.33,-23.33,0,*69
1536523396.47,34296,18.81,74498.8,-0.11,-23.23,-23.33,0,*6B
1536523397.74,34297,18.81,74498.0,-0.09,-23.29,-23.49,0,*54
1536523398.99,34298,18.81,74494.3,-0.11,-23.33,-23.49,0,*69
1536523400.24,34299,18.81,74494.5,-0.11,-23.29,-23.49,0,*63
1536523401.48,34300,18.81,74498.8,-0.11,-23.33,-23.49,0,*69
1536523402.71,34301,18.81,74496.0,-0.11,-23.33,-23.43,0,*62
1536523403.93,34302,18.81,74492.0,-0.11,-23.49,-23.59,0,*67
1536523405.16,34303,18.81,74496.5,-0.11,-23.43,-23.65,0,*63
1536523406.4,34304,18.81,74496.5,-0.11,-23.49,-23.65,0,*6E
1536523407.63,34305,18.81,74498.3,-0.09,-23.43,-23.59,0,*53
1536523408.88,34306,18.81,74496.0,-0.11,-23.33,-23.49,0,*6F
1536523410.12,34307,18.81,74496.5,-0.11,-23.33,-23.49,0,*6E
1536523411.39,34308,18.81,74498.0,-0.09,-23.49,-23.65,0,*5B
1536523412.61,34309,18.81,74496.5,-0.11,-23.59,-23.65,0,*62
1536523413.86,34310,18.88,74498.8,-0.11,-23.33,-23.49,0,*68
1536523415.13,34311,18.81,74496.5,-0.09,-23.29,-23.49,0,*5B
1536523416.38,34312,18.81,74494.3,-0.11,-23.29,-23.33,0,*6C
1536523417.65,34313,18.81,74498.5,-0.09,-23.33,-23.49,0,*52
1536523418.92,34314,18.81,74496.0,-0.09,-23.65,-23.65,0,*58
1536523420.12,34315,18.81,74496.0,-0.11,-23.59,-23.75,0,*6E
1536523421.35,34316,18.81,74498.3,-0.11,-23.65,-23.75,0,*62
1536523422.57,34317,18.81,74496.5,-0.11,-23.65,-23.79,0,*6F
1536523423.77,34318,18.81,74496.0,-0.11,-23.75,-23.79,0,*61
1536523424.99,34319,18.81,74496.5,-0.11,-23.65,-23.75,0,*6D
1536523426.19,34320,18.81,74496.3,-0.11,-23.59,-23.75,0,*68
1536523427.42,34321,18.81,74496.0,-0.11,-23.49,-23.59,0,*66
1536523428.66,34322,18.81,74498.8,-0.11,-23.49,-23.65,0,*6A
1536523429.93,34323,18.81,74498.0,-0.09,-23.49,-23.65,0,*52
1536523431.13,34324,18.81,74496.5,-0.11,-23.75,-23.75,0,*62
1536523432.36,34325,18.81,74494.8,-0.11,-23.65,-23.79,0,*6E
1536523433.62,34326,18.81,74496.0,-0.09,-23.49,-23.65,0,*57
1536523434.9,34327,18.81,74498.3,-0.13,-23.65,-23.69,0,*6F
1536523436.17,34328,18.81,74496.5,-0.13,-23.29,-23.29,0,*6C
1536523437.45,34329,18.81,74494.5,-0.13,-23.33,-23.49,0,*60
1536523438.7,34330,18.81,74496.5,-0.11,-23.33,-23.49,0,*6A
1536523439.92,34331,18.81,74496.0,-0.11,-23.29,-23.43,0,*6A
1536523441.17,34332,18.81,74496.5,-0.11,-23.33,-23.49,0,*68
1536523442.37,34333,18.81,74494.0,-0.11,-23.43,-23.59,0,*6F
1536523443.59,34334,18.88,74498.0,-0.11,-23.65,-23.79,0,*6E
1536523444.82,34335,18.81,74496.0,-0.11,-23.49,-23.75,0,*6D
1536523446.07,34336,18.81,74494.8,-0.11,-23.49,-23.49,0,*61
1536523447.29,34337,18.81,74492.8,-0.11,-23.59,-23.65,0,*6F
1536523448.53,34338,18.81,74494.5,-0.11,-23.65,-23.65,0,*6F
1536523449.75,34339,18.81,74494.3,-0.11,-23.49,-23.59,0,*6F
1536523451.0,34340,18.81,74492.0,-0.11,-23.65,-23.65,0,*60
1536523452.22,34341,18.81,74496.5,-0.11,-23.59,-23.65,0,*6E
1536523453.5,34342,18.81,74496.0,-0.13,-23.53,-23.69,0,*69
1536523454.75,34343,18.81,74496.3,-0.13,-23.65,-23.79,0,*6C
1536523456.0,34344,18.81,74496.5,-0.13,-23.53,-23.79,0,*6E
1536523457.25,34345,18.81,74496.0,-0.13,-23.39,-23.49,0,*60
1536523458.49,34346,18.81,74498.0,-0.13,-23.39,-23.53,0,*68
1536523459.74,34347,18.81,74496.5,-0.13,-23.39,-23.65,0,*6C
1536523460.98,34348,18.81,74496.0,-0.13,-23.39,-23.65,0,*63
1536523462.26,34349,18.81,74498.3,-0.13,-23.53,-23.65,0,*6E
1536523463.54,34350,18.81,74494.5,-0.13,-23.33,-23.49,0,*6E
1536523464.81,34351,18.88,74498.8,-0.13,-23.49,-23.53,0,*69
1536523466.09,34352,18.81,74494.5,-0.13,-23.53,-23.69,0,*68
1536523467.36,34353,18.81,74494.8,-0.13,-23.53,-23.69,0,*69
1536523468.64,34354,18.81,74496.0,-0.13,-23.53,-23.65,0,*62
1536523469.91,34355,18.81,74496.0,-0.13,-23.49,-23.69,0,*64
1536523471.14,34356,18.81,74494.8,-0.11,-23.49,-23.59,0,*66
1536523472.38,34357,18.81,74494.0,-0.11,-23.49,-23.65,0,*68
1536523473.63,34358,18.81,74492.5,-0.09,-23.43,-23.49,0,*5A
1536523474.88,34359,18.81,74494.8,-0.13,-23.33,-23.39,0,*60
1536523476.16,34360,18.81,74494.5,-0.13,-23.49,-23.65,0,*6E
1536523477.4,34361,18.81,74494.0,-0.13,-23.39,-23.49,0,*66
1536523478.63,34362,18.81,74492.3,-0.11,-23.33,-23.59,0,*6C
1536523479.88,34363,18.81,74496.0,-0.15,-23.33,-23.49,0,*68
1536523481.13,34364,18.81,74492.5,-0.13,-23.33,-23.39,0,*6E
1536523482.35,34365,18.81,74496.8,-0.13,-23.39,-23.39,0,*65
1536523483.58,34366,18.88,74496.8,-0.11,-23.33,-23.43,0,*63
1536523484.8,34367,18.81,74498.3,-0.11,-23.13,-23.23,0,*66
1536523486.04,34368,18.81,74492.8,-0.11,-23.09,-23.23,0,*62
1536523487.29,34369,18.81,74492.5,-0.09,-23.13,-23.23,0,*51
1536523488.53,34370,18.81,74492.0,-0.11,-23.23,-23.29,0,*69
1536523489.78,34371,18.81,74494.3,-0.11,-23.33,-23.49,0,*6F
1536523491.05,34372,18.81,74492.0,-0.09,-23.33,-23.49,0,*55
1536523492.28,34373,18.81,74498.3,-0.09,-23.43,-23.43,0,*59
1536523493.54,34374,18.81,74492.5,-0.09,-23.43,-23.49,0,*54
1536523494.81,34375,18.81,74494.0,-0.09,-23.33,-23.49,0,*52
1536523496.05,34376,18.81,74496.5,-0.09,-23.49,-23.59,0,*5D
1536523497.3,34377,18.81,74494.0,-0.11,-23.65,-23.65,0,*64
1536523498.5,34378,18.81,74492.3,-0.11,-23.75,-23.75,0,*6B
1536523499.72,34379,18.81,74498.5,-0.11,-23.59,-23.65,0,*65
1536523500.95,34380,18.81,74494.8,-0.11,-23.43,-23.65,0,*68
1536523502.2,34381,18.81,74492.8,-0.09,-23.65,-23.75,0,*55
1536523503.42,34382,18.81,74496.0,-0.11,-23.49,-23.59,0,*6F
1536523504.64,34383,18.81,74492.0,-0.11,-23.29,-23.43,0,*63
1536523505.89,34384,18.81,74494.8,-0.11,-23.49,-23.65,0,*66
1536523507.16,34385,18.81,74492.5,-0.09,-23.65,-23.65,0,*50
1536523508.38,34386,18.81,74496.0,-0.09,-23.43,-23.59,0,*58
1536523509.65,34387,18.81,74492.8,-0.09,-23.49,-23.65,0,*5C
1536523510.87,34388,18.81,74494.0,-0.11,-23.59,-23.65,0,*6B
1536523512.1,34389,18.81,74492.8,-0.11,-23.43,-23.49,0,*6F
1536523513.35,34390,18.81,74498.0,-0.11,-23.29,-23.33,0,*66
1536523514.59,34391,18.81,74494.3,-0.11,-23.49,-23.65,0,*62
1536523515.84,34392,18.81,74492.5,-0.11,-23.49,-23.65,0,*61
1536523517.08,34393,18.81,74498.5,-0.11,-23.65,-23.65,0,*6E
1536523518.33,34394,18.81,74494.3,-0.11,-23.29,-23.29,0,*69
1536523519.57,34395,18.81,74498.8,-0.11,-23.29,-23.33,0,*63
1536523520.8,34396,18.81,74494.0,-0.11,-23.33,-23.43,0,*6C
1536523522.05,34397,18.81,74492.0,-0.11,-23.29,-23.49,0,*6C
1536523523.32,34398,18.81,74498.5,-0.09,-23.33,-23.49,0,*51
1536523524.56,34399,18.81,74496.3,-0.09,-23.13,-23.29,0,*54
1536523525.81,34400,18.81,74498.0,-0.09,-23.13,-23.33,0,*58
1536523527.08,34401,18.81,74496.8,-0.09,-23.23,-23.33,0,*5A
1536523528.35,34402,18.81,74496.8,-0.09,-23.49,-23.65,0,*56
1536523529.58,34403,18.81,74496.8,-0.11,-23.29,-23.43,0,*6C
1536523530.83,34404,18.81,74496.3,-0.09,-23.29,-23.43,0,*52
1536523532.08,34405,18.81,74494.8,-0.09,-23.43,-23.49,0,*55
1536523533.33,34406,18.81,74498.8,-0.11,-23.29,-23.29,0,*65
1536523534.58,34407,18.81,74494.8,-0.09,-23.13,-23.23,0,*5E
1536523535.83,34408,18.81,74494.8,-0.09,-23.13,-23.23,0,*51
1536523537.06,34409,18.81,74498.8,-0.07,-23.03,-23.09,0,*57
1536523538.31,34410,18.81,74494.3,-0.07,-23.19,-23.23,0,*5C
1536523539.56,34411,18.81,74496.3,-0.07,-23.19,-23.23,0,*5D
1536523540.78,34412,18.81,74494.3,-0.07,-23.23,-23.43,0,*51
1536523542.0,34413,18.81,74498.5,-0.07,-23.43,-23.53,0,*57
1536523543.22,34414,18.81,74498.0,-0.07,-23.53,-23.59,0,*5B
1536523544.41,34415,18.81,74494.0,-0.07,-23.39,-23.59,0,*56
1536523545.62,34416,18.81,74496.5,-0.07,-23.39,-23.53,0,*5F
1536523546.87,34417,18.81,74496.5,-0.09,-23.33,-23.43,0,*5B
1536523548.15,34418,18.81,74496.8,-0.09,-23.29,-23.49,0,*55
1536523549.4,34419,18.81,74498.5,-0.09,-23.43,-23.49,0,*58
1536523550.65,34420,18.81,74494.3,-0.09,-23.29,-23.43,0,*54
1536523551.87,34421,18.81,74496.5,-0.07,-23.29,-23.39,0,*56
1536523553.06,34422,18.81,74494.5,-0.07,-23.59,-23.59,0,*54
1536523554.31,34423,18.81,74496.0,-0.07,-23.53,-23.53,0,*55
1536523555.5,34424,18.81,74492.3,-0.07,-23.59,-23.59,0,*52
1536523556.72,34425,18.81,74492.3,-0.07,-23.53,-23.75,0,*57
1536523557.92,34426,18.81,74492.0,-0.07,-23.39,-23.43,0,*5D
1536523559.14,34427,18.81,74494.3,-0.07,-23.23,-23.39,0,*5A
1536523560.35,34428,18.81,74496.8,-0.07,-23.29,-23.59,0,*59
1536523561.55,34429,18.81,74496.0,-0.07,-23.59,-23.59,0,*5F
1536523562.79,34430,18.81,74496.0,-0.07,-23.53,-23.53,0,*57
1536523564.01,34431,18.81,74492.3,-0.07,-23.23,-23.43,0,*50
1536523565.21,34432,18.81,74494.0,-0.07,-23.43,-23.59,0,*5E
1536523566.43,34433,18.81,74492.0,-0.07,-23.23,-23.39,0,*5F
1536523567.67,34434,18.81,74492.3,-0.07,-23.23,-23.29,0,*59
1536523568.91,34435,18.81,74494.8,-0.07,-23.23,-23.29,0,*58
1536523570.09,34436,18.81,74494.3,-0.07,-23.39,-23.39,0,*51
1536523571.33,34437,18.81,74494.3,-0.07,-23.23,-23.29,0,*5A
1536523572.55,34438,18.81,74492.8,-0.07,-23.29,-23.39,0,*5E
1536523573.8,34439,18.81,74492.3,-0.09,-23.33,-23.43,0,*57
1536523575.03,34440,18.81,74492.5,-0.07,-23.29,-23.43,0,*5C
1536523576.3,34441,18.81,74492.3,-0.05,-23.19,-23.23,0,*5A
1536523577.54,34442,18.81,74492.0,-0.07,-23.23,-23.29,0,*58
1536523578.79,34443,18.81,74496.0,-0.05,-23.33,-23.39,0,*5B
1536523580.03,34444,18.81,74492.0,-0.07,-23.23,-23.29,0,*5E
1536523581.27,34445,18.81,74492.8,-0.05,-23.33,-23.39,0,*5D
1536523582.48,34446,18.81,74492.0,-0.07,-23.39,-23.53,0,*5A
1536523583.67,34447,18.81,74492.5,-0.07,-23.39,-23.43,0,*5A
1536523584.95,34448,18.81,74494.3,-0.05,-23.19,-23.23,0,*53
1536523586.17,34449,18.81,74494.8,-0.07,-23.29,-23.43,0,*55
1536523587.37,34450,18.81,74496.3,-0.07,-23.39,-23.43,0,*5C
1536523588.62,34451,18.81,74492.5,-0.05,-23.13,-23.19,0,*58
1536523589.87,34452,18.81,74496.0,-0.07,-23.19,-23.23,0,*5A
1536523591.09,34453,18.81,74492.5,-0.07,-23.23,-23.43,0,*54
1536523592.36,34454,18.81,74498.8,-0.05,-23.33,-23.33,0,*57
1536523593.63,34455,18.81,74498.0,-0.05,-23.19,-23.33,0,*5E
1536523594.87,34456,18.81,74494.8,-0.07,-23.19,-23.29,0,*54
1536523596.12,34457,18.81,74492.5,-0.05,-23.03,-23.13,0,*55
1536523597.37,34458,18.81,74494.8,-0.07,-23.19,-23.23,0,*50
1536523598.58,34459,18.81,74492.8,-0.07,-23.23,-23.39,0,*53
1536523599.82,34460,18.81,74496.0,-0.05,-23.23,-23.39,0,*5B
1536523601.04,34461,18.81,74492.8,-0.07,-23.23,-23.39,0,*58
1536523602.29,34462,18.81,74496.8,-0.07,-23.23,-23.23,0,*50
1536523603.56,34463,18.81,74492.5,-0.05,-23.23,-23.23,0,*53
1536523604.8,34464,18.81,74494.8,-0.07,-23.23,-23.29,0,*5C
1536523606.07,34465,18.81,74496.3,-0.05,-23.23,-23.33,0,*54
1536523607.34,34466,18.81,74494.5,-0.05,-23.19,-23.23,0,*5F
1536523608.62,34467,18.81,74490.3,-0.05,-23.19,-23.23,0,*5E
1536523609.86,34468,18.81,74494.3,-0.05,-23.33,-23.39,0,*52
1536523611.1,34469,18.81,74494.3,-0.05,-23.23,-23.39,0,*52
1536523612.34,34470,18.81,74492.0,-0.05,-23.23,-23.39,0,*5A
1536523613.58,34471,18.81,74494.8,-0.07,-23.23,-23.29,0,*58
1536523614.78,34472,18.81,74494.8,-0.07,-23.13,-23.13,0,*51
1536523616.02,34473,18.81,74496.8,-0.05,-23.13,-23.19,0,*58
1536523617.3,34474,18.81,74496.0,-0.05,-23.19,-23.23,0,*5C
1536523618.55,34475,18.81,74494.0,-0.03,-23.19,-23.23,0,*5B
1536523619.8,34476,18.81,74492.5,-0.03,-23.19,-23.19,0,*51
1536523621.04,34477,18.81,74490.3,-0.03,-23.03,-23.03,0,*50
1536523622.26,34478,18.81,74494.3,-0.03,-23.13,-23.19,0,*55
1536523623.45,34479,18.81,74492.8,-0.03,-23.13,-23.13,0,*5E
1536523624.73,34480,18.81,74494.5,-0.05,-23.19,-23.19,0,*5E
1536523626.0,34481,18.81,74492.3,-0.05,-23.19,-23.23,0,*56
1536523627.27,34482,18.81,74494.8,-0.01,-23.19,-23.29,0,*5B
1536523628.52,34483,18.81,74498.3,-0.03,-23.19,-23.19,0,*5B
1536523629.76,34484,18.81,74492.8,-0.03,-23.23,-23.23,0,*5C
1536523631.01,34485,18.81,74492.8,-0.03,-23.19,-23.19,0,*5D
1536523632.2,34486,18.81,74496.8,-0.03,-23.13,-23.13,0,*5E
1536523633.4,34487,18.81,74494.5,-0.03,-23.09,-23.09,0,*5F
1536523634.6,34488,18.81,74496.8,-0.03,-23.13,-23.09,0,*5B
1536523635.85,34489,18.81,74492.5,-0.03,-23.23,-23.23,0,*51
1536523637.07,34490,18.81,74490.5,-0.01,-23.13,-23.09,0,*50
1536523638.32,34491,18.81,74494.3,-0.03,-23.19,-23.23,0,*51
1536523639.56,34492,18.81,74498.0,-0.03,-23.19,-23.33,0,*53
1536523640.79,34493,18.81,74496.8,-0.01,-23.09,-22.97,0,*5E
1536523642.01,34494,18.81,74494.5,-0.01,-22.97,-22.97,0,*5F
1536523643.26,34495,18.81,74492.8,-0.01,-23.09,-23.19,0,*5F
1536523644.48,34496,18.81,74492.8,-0.03,-23.33,-23.39,0,*55
1536523645.75,34497,18.81,74492.0,-0.01,-23.33,-23.33,0,*5C
1536523647.0,34498,18.81,74494.0,-0.01,-23.33,-23.43,0,*54
1536523648.19,34499,18.81,74494.0,-0.03,-23.13,-23.13,0,*50
1536523649.46,34500,18.81,74498.3,-0.01,-23.19,-23.19,0,*53
1536523650.71,34501,18.81,74496.0,-0.01,-23.13,-23.19,0,*58
1536523651.93,34502,18.81,74494.5,-0.03,-23.19,-23.13,0,*59
1536523653.16,34503,18.81,74494.0,-0.01,-22.97,-23.09,0,*56
1536523654.38,34504,18.81,74494.0,-0.01,-23.09,-22.97,0,*51
1536523655.65,34505,18.81,74496.5,-0.01,-23.19,-23.29,0,*55
1536523656.86,34506,18.81,74494.5,0.01,-23.19,-23.13,0,*72
1536523658.13,34507,18.81,74492.5,-0.01,-23.19,-23.29,0,*57
1536523659.4,34508,18.81,74494.8,-0.01,-23.19,-23.33,0,*53
1536523660.65,34509,18.81,74492.8,-0.01,-23.13,-23.19,0,*50
1536523661.9,34510,18.81,74492.3,-0.01,-23.13,-23.19,0,*58
1536523663.16,34511,18.81,74496.3,-0.01,-23.29,-23.29,0,*53
1536523664.43,34512,18.81,74494.0,-0.01,-23.33,-23.49,0,*5D
1536523665.65,34513,18.81,74494.8,-0.01,-23.13,-23.13,0,*51
1536523666.87,34514,18.81,74490.3,-0.01,-23.13,-23.13,0,*56
1536523668.09,34515,18.81,74494.3,-0.01,-23.13,-23.13,0,*57
1536523669.31,34516,18.81,74492.5,-0.01,-23.13,-23.13,0,*54
1536523670.53,34517,18.81,74494.8,0.01,-23.13,-23.19,0,*72
1536523671.76,34518,18.81,74496.0,0.01,-23.29,-23.33,0,*7C
1536523672.99,34519,18.81,74494.5,0.01,-23.29,-23.29,0,*76
1536523674.18,34520,18.81,74492.8,0.01,-23.13,-23.13,0,*7C
1536523675.42,34521,18.81,74492.8,0.01,-23.19,-23.29,0,*7E
1536523676.66,34522,18.81,74492.8,0.01,-23.19,-23.19,0,*7E
1536523677.88,34523,18.81,74494.0,-0.01,-23.13,-23.13,0,*52
1536523679.07,34524,18.81,74494.3,0.01,-23.13,-23.09,0,*73
1536523680.26,34525,18.81,74492.8,0.01,-22.97,-23.09,0,*7F
1536523681.45,34526,18.81,74492.0,0.05,-23.13,-23.13,0,*7E
1536523682.66,34527,18.81,74496.8,0.05,-23.13,-23.23,0,*7C
1536523683.9,34528,18.81,74492.8,0.01,-23.19,-23.33,0,*7C
1536523685.11,34529,18.81,74494.0,0.01,-23.13,-23.29,0,*7C
1536523686.35,34530,18.81,74494.8,0.05,-23.23,-23.23,0,*79
1536523687.56,34531,18.81,74494.0,0.01,-23.29,-23.43,0,*70
1536523688.78,34532,18.81,74492.8,0.01,-23.33,-23.43,0,*78
1536523689.97,34533,18.81,74494.0,0.01,-23.13,-23.13,0,*7E
1536523691.21,34534,18.81,74492.8,0.01,-23.19,-23.19,0,*79
1536523692.43,34535,18.81,74492.8,0.05,-23.09,-23.03,0,*76
1536523693.62,34536,18.81,74490.5,0.05,-23.13,-23.09,0,*74
1536523694.85,34537,18.81,74494.0,0.01,-23.29,-23.33,0,*71
1536523696.09,34538,18.81,74496.5,0.01,-23.33,-23.33,0,*75
1536523697.3,34539,18.81,74494.5,0.05,-23.23,-23.13,0,*73